This is the latest recevied weather packets stored in our database for station/object AI5BL. If no packets are shown the sender has not sent any weather packets the latest 10 day(s).
| Time | Temp. | Humidity | Pressure | Rain* | Wind** | Luminosity | Snow |
|---|---|---|---|---|---|---|---|
| 1778134010 | 22.78° C | 99% | 1012.8 hPa | 0 mm | - | 0 W/m² | - |
| 1778133706 | 22.78° C | 99% | 1013 hPa | 0 mm | - | 0 W/m² | - |
| 1778133401 | 22.78° C | 99% | 1012.6 hPa | 0 mm | - | 0 W/m² | - |
| 1778133098 | 22.78° C | 99% | 1012.3 hPa | 1.27 mm | - | 0 W/m² | - |
| 1778132793 | 22.22° C | 99% | 1011.8 hPa | 4.32 mm | - | 0 W/m² | - |
| 1778132491 | 22.22° C | 99% | 1012.1 hPa | 3.05 mm | - | 0 W/m² | - |
| 1778132189 | 22.22° C | 99% | 1012.4 hPa | 4.83 mm | - | 0 W/m² | - |
| 1778131887 | 22.22° C | 99% | 1012.4 hPa | 16.76 mm | - | 0 W/m² | - |
| 1778131585 | 22.22° C | 99% | 1012 hPa | 16.76 mm | - | 0 W/m² | - |
| 1778131280 | 22.22° C | 99% | 1012.4 hPa | 4.32 mm | - | 0 W/m² | - |
| 1778130979 | 22.22° C | 99% | 1013.1 hPa | 0 mm | - | 0 W/m² | - |
| 1778130675 | 22.22° C | 99% | 1013.5 hPa | 0 mm | - | 0 W/m² | - |
| 1778130372 | 22.22° C | 99% | 1013.3 hPa | 3.05 mm | - | 0 W/m² | - |
| 1778130069 | 22.22° C | 99% | 1013 hPa | 7.87 mm | - | 0 W/m² | - |
| 1778129765 | 22.22° C | 99% | 1013.5 hPa | 12.7 mm | - | 0 W/m² | - |
| 1778129462 | 22.22° C | 99% | 1013.7 hPa | 21.08 mm | - | 0 W/m² | - |
| 1778129159 | 22.22° C | 99% | 1013.8 hPa | 13.21 mm | - | 0 W/m² | - |
| 1778128856 | 22.22° C | 99% | 1013.4 hPa | 0 mm | - | 0 W/m² | - |
| 1778128551 | 22.22° C | 99% | 1013.2 hPa | 1.78 mm | - | 0 W/m² | - |
| 1778128249 | 22.22° C | 99% | 1013.2 hPa | 0 mm | - | 0 W/m² | - |
| 1778127945 | 22.22° C | 99% | 1013.1 hPa | 0 mm | - | 0 W/m² | - |
| 1778127640 | 22.22° C | 99% | 1012.9 hPa | 0 mm | - | 0 W/m² | - |
| 1778127338 | 22.22° C | 99% | 1012.8 hPa | 0 mm | - | 0 W/m² | - |
| 1778127035 | 22.22° C | 99% | 1013.1 hPa | 0 mm | - | 0 W/m² | - |
| 1778126731 | 22.22° C | 99% | 1013.3 hPa | 0 mm | - | 0 W/m² | - |
* Rain latest hour (hover to see other rain measurements)
** Current wind speed in m/s (hover to see current wind gust speed)